Weather History for Barcelona, Spain

Change the Weather History Date:

Saturday, February 22, 2014

  Actual Average Record
Temperature  
Mean Temperature 51 °F -  
Max Temperature 61 °F 58 °F 73 °F (1999)
Min Temperature 41 °F 44 °F 33 °F (2005)
Degree Days  
Heating Degree Days 14    
Growing Degree Days 1 (Base 50)    
Moisture  
Dew Point 38 °F    
Average Humidity 62    
Maximum Humidity 92    
Minimum Humidity 25    
Precipitation  
Precipitation 0.00 in 0.06 in - ()
Sea Level Pressure  
Sea Level Pressure 30.16 in    
Wind  
Wind Speed 9 mph ()    
Max Wind Speed 15 mph    
Max Gust Speed 29 mph    
Visibility 10.5 miles    
Events      
Averages and records for this station are not official NWS values.
T = Trace of Precipitation, MM = Missing Value Source: Averaged Metar Reports

Daily Weather History Graph

Daily Weather History Graph

Search for Another Location

Airport:

Trip Planner

Search our weather history database for the weather conditions in past years. The results will help you decide how hot, cold, wet, or windy it might be!

Date:

Astronomy

Feb. 22, 2014 Rise Set
Actual Time 7:37 AM CET 6:33 PM CET
Civil Twilight 7:09 AM CET 7:01 PM CET
Nautical Twilight 6:37 AM CET 7:34 PM CET
Astronomical Twilight 6:05 AM CET 8:06 PM CET
Moon 1:17 AM CET 11:31 AM CET
Length of Visible Light 11h 52m
Length of Day
10h 56m
Waning Gibbous, 53% of the Moon is Illuminated
Feb 22
Waning Gibbous
Feb 22
Last Quarter
Mar 1
New
Mar 8
First Quarter
Mar 16
Full

Hourly Weather History & Observations

Time (CET) Temp. Windchill Dew Point Humidity Pressure Visibility Wind Dir Wind Speed Gust Speed Precip Events Conditions
12:00 AM 47 °F - 45 °F 92% 30.13 in 19 mi NNW 4.6 mph - -  
12:00 AM 48.2 °F - 44.6 °F 87% 30.12 in 6.2 mi NNE 3.5 mph - N/A   Partly Cloudy
12:30 AM 46.4 °F 43.5 °F 42.8 °F 87% 30.12 in 6.2 mi NW 5.8 mph - N/A   Scattered Clouds
1:00 AM 47 °F - 45 °F 88% 30.13 in 11 mi North 9.2 mph - -   Mostly Cloudy
1:00 AM 46.4 °F 42.9 °F 42.8 °F 87% 30.12 in 6.2 mi NNW 6.9 mph - N/A   Scattered Clouds
1:30 AM 46.4 °F - 42.8 °F 87% 30.12 in 6.2 mi Variable 2.3 mph - N/A   Scattered Clouds
2:00 AM 47 °F - 44 °F 86% 30.12 in 10 mi North 10.4 mph - -  
2:00 AM 46.4 °F 42.4 °F 42.8 °F 87% 30.12 in 6.2 mi NNW 8.1 mph - N/A   Scattered Clouds
2:30 AM 46.4 °F 44.3 °F 41.0 °F 81% 30.09 in 6.2 mi NNW 4.6 mph - N/A   Scattered Clouds
3:00 AM 47 °F - 43 °F 82% 30.12 in 9 mi North 9.2 mph - -  
3:00 AM 46.4 °F 41.9 °F 41.0 °F 81% 30.09 in 6.2 mi NNW 9.2 mph - N/A   Scattered Clouds
3:30 AM 44.6 °F 38.8 °F 41.0 °F 87% 30.09 in 6.2 mi NW 11.5 mph - N/A   Scattered Clouds
4:00 AM 46 °F - 41 °F 77% 30.12 in 9 mi NNW 12.7 mph - -   Mostly Cloudy
4:00 AM 46.4 °F 41.1 °F 39.2 °F 76% 30.09 in 6.2 mi NW 11.5 mph - N/A   Mostly Cloudy
4:30 AM 46.4 °F 41.1 °F 37.4 °F 71% 30.09 in 6.2 mi NNW 11.5 mph - N/A   Mostly Cloudy
5:00 AM 45 °F - 39 °F 72% 30.12 in 11 mi North 13.8 mph - -  
5:00 AM 44.6 °F 38.8 °F 37.4 °F 76% 30.09 in 6.2 mi NNW 11.5 mph - N/A   Partly Cloudy
5:30 AM 44.6 °F 38.4 °F 35.6 °F 71% 30.09 in 6.2 mi NNW 12.7 mph - N/A   Partly Cloudy
6:00 AM 44 °F - 36 °F 64% 30.12 in 19 mi North 15.0 mph - -  
6:00 AM 42.8 °F 36.2 °F 33.8 °F 70% 30.12 in 6.2 mi NNW 12.7 mph - N/A   Partly Cloudy
6:30 AM 42.8 °F 36.2 °F 33.8 °F 70% 30.12 in 6.2 mi NNW 12.7 mph - N/A   Partly Cloudy
7:00 AM 42 °F - 34 °F 65% 30.14 in 12 mi North 15.0 mph - -   Scattered Clouds
7:00 AM 42.8 °F 35.8 °F 32.0 °F 66% 30.12 in 6.2 mi NNW 13.8 mph - N/A   Partly Cloudy
7:30 AM 41.0 °F 33.1 °F 32.0 °F 70% 30.12 in 6.2 mi NW 15.0 mph 28.8 mph N/A   Partly Cloudy
8:00 AM 42 °F - 34 °F 65% 30.16 in 19 mi NNW 13.8 mph - -  
8:00 AM 41.0 °F 33.5 °F 32.0 °F 70% 30.15 in 6.2 mi NW 13.8 mph - N/A   Partly Cloudy
8:30 AM 41.0 °F 33.5 °F 32.0 °F 70% 30.15 in 6.2 mi NNW 13.8 mph - N/A   Partly Cloudy
9:00 AM 43 °F - 35 °F 64% 30.18 in 15 mi NNW 12.7 mph - -  
9:00 AM 42.8 °F 35.4 °F 32.0 °F 66% 30.15 in 6.2 mi NNW 15.0 mph 26.5 mph N/A   Partly Cloudy
9:30 AM 42.8 °F 36.2 °F 32.0 °F 66% 30.18 in 6.2 mi NNW 12.7 mph 25.3 mph N/A   Partly Cloudy
10:00 AM 47 °F - 35 °F 52% 30.19 in 16 mi North 15.0 mph - -   Scattered Clouds
10:00 AM 46.4 °F 40.4 °F 32.0 °F 57% 30.18 in 6.2 mi NNW 13.8 mph - N/A   Partly Cloudy
10:30 AM 48.2 °F - 32.0 °F 54% 30.18 in 6.2 mi NNW 15.0 mph - N/A   Partly Cloudy
11:00 AM 52 °F - 35 °F 40% 30.20 in 16 mi North 13.8 mph - -  
11:00 AM 50.0 °F - 33.8 °F 54% 30.18 in 6.2 mi NW 12.7 mph - N/A   Partly Cloudy
11:30 AM 51.8 °F - 32.0 °F 47% 30.18 in 6.2 mi NNW 13.8 mph - N/A   Partly Cloudy
12:00 PM 56 °F - 35 °F 33% 30.20 in 19 mi North 8.1 mph - -  
12:00 PM 55.4 °F - 32.0 °F 41% 30.18 in - NW 9.2 mph 23.0 mph N/A   Clear
12:30 PM 57.2 °F - 28.4 °F 33% 30.18 in - WNW 4.6 mph - N/A   Clear
1:00 PM 58 °F - 43 °F 47% 30.19 in 19 mi SSW 9.2 mph - -   Scattered Clouds
1:00 PM 55.4 °F - 39.2 °F 54% 30.18 in 6.2 mi NW 3.5 mph - N/A   Partly Cloudy
1:30 PM 55.4 °F - 42.8 °F 63% 30.18 in 6.2 mi SSW 13.8 mph - N/A   Partly Cloudy
2:00 PM 56 °F - 43 °F 52% 30.17 in 12 mi SSW 13.8 mph - -  
2:00 PM 55.4 °F - 42.8 °F 63% 30.15 in 6.2 mi SSW 12.7 mph - N/A   Partly Cloudy
2:30 PM 55.4 °F - 41.0 °F 58% 30.15 in 6.2 mi SW 13.8 mph - N/A   Partly Cloudy
3:00 PM 57 °F - 41 °F 43% 30.16 in 19 mi SSW 15.0 mph - -  
3:00 PM 55.4 °F - 37.4 °F 51% 30.15 in - SSW 12.7 mph - N/A   Clear
3:30 PM 57.2 °F - 35.6 °F 44% 30.15 in - SSW 13.8 mph - N/A   Clear
4:00 PM 58 °F - 43 °F 46% 30.14 in 19 mi SW 13.8 mph - -  
4:00 PM 57.2 °F - 39.2 °F 51% 30.12 in - SSW 12.7 mph - N/A   Clear
4:30 PM 59.0 °F - 37.4 °F 45% 30.12 in - SSW 11.5 mph - N/A   Clear
5:00 PM 60 °F - 43 °F 42% 30.15 in 19 mi SW 11.5 mph - -  
5:00 PM 59.0 °F - 41.0 °F 51% 30.12 in - SW 13.8 mph - N/A   Clear
5:30 PM 60.8 °F - 33.8 °F 36% 30.12 in - SW 8.1 mph - N/A   Clear
6:00 PM 60 °F - 33 °F 25% 30.17 in 19 mi WNW 9.2 mph - -  
6:00 PM 59.0 °F - 30.2 °F 34% 30.15 in - NNW 8.1 mph - N/A   Clear
6:30 PM 59.0 °F - 32.0 °F 36% 30.15 in - WNW 6.9 mph - N/A   Clear
7:00 PM 57 °F - 36 °F 33% 30.19 in 19 mi West 5.8 mph - -  
7:00 PM 55.4 °F - 33.8 °F 44% 30.18 in - West 4.6 mph - N/A   Clear
7:30 PM 53.6 °F - 33.8 °F 47% 30.18 in - West 4.6 mph - N/A   Clear
8:00 PM 53 °F - 44 °F 62% 30.22 in 19 mi WSW 11.5 mph - -  
8:00 PM 53.6 °F - 42.8 °F 67% 30.21 in - SW 11.5 mph - N/A   Clear
8:30 PM 51.8 °F - 41.0 °F 67% 30.21 in - WSW 10.4 mph - N/A   Clear
9:00 PM 51 °F - 43 °F 65% 30.22 in 19 mi WSW 6.9 mph - -  
9:00 PM 51.8 °F - 41.0 °F 67% 30.21 in - WSW 9.2 mph - N/A   Clear
9:30 PM 50.0 °F - 39.2 °F 66% 30.21 in - West 6.9 mph - N/A   Clear
10:00 PM 51 °F - 42 °F 62% 30.23 in 19 mi West 5.8 mph - -  
10:00 PM 51.8 °F - 39.2 °F 62% 30.21 in - WNW 5.8 mph - N/A   Clear
10:30 PM 48.2 °F - 37.4 °F 66% 30.21 in - Variable 2.3 mph - N/A   Clear
11:00 PM 47 °F - 38 °F 61% 30.25 in 14 mi NNW 3.5 mph - -  
11:00 PM 46.4 °F 42.9 °F 35.6 °F 66% 30.24 in 6.2 mi NW 6.9 mph - N/A   Partly Cloudy
11:30 PM 46.4 °F 45.2 °F 35.6 °F 66% 30.24 in 6.2 mi NW 3.5 mph - N/A   Partly Cloudy